TimeMST,TemperatureF,Dew PointF,Humidity,Sea Level PressureIn,VisibilityMPH,Wind Direction,Wind SpeedMPH,Gust SpeedMPH,PrecipitationIn,Events,Conditions,WindDirDegrees,DateUTC
12:53 AM,12.9,3.9,67,29.90,10.0,West,9.2,-,N/A,,Clear,270,2012-12-19 07:53:00
1:53 AM,14.0,3.9,64,29.91,10.0,WNW,9.2,-,N/A,,Clear,290,2012-12-19 08:53:00
2:53 AM,12.0,3.9,70,29.93,10.0,West,5.8,-,N/A,,Clear,260,2012-12-19 09:53:00
3:53 AM,14.0,3.9,64,29.96,10.0,WNW,9.2,-,N/A,,Clear,290,2012-12-19 10:53:00
4:53 AM,12.2,3.2,67,29.82,10.0,West,8.1,-,N/A,,Clear,280,2012-12-19 11:53:00
5:53 AM,12.9,5.0,71,30.03,10.0,West,6.9,-,N/A,,Clear,270,2012-12-19 12:53:00
6:53 AM,12.9,5.0,71,30.06,10.0,West,10.4,-,N/A,,Clear,280,2012-12-19 13:53:00
7:53 AM,14.0,5.0,67,30.09,10.0,West,6.9,-,N/A,,Clear,280,2012-12-19 14:53:00
8:53 AM,17.1,6.1,62,30.09,10.0,West,11.5,-,N/A,,Clear,270,2012-12-19 15:53:00
9:53 AM,21.0,7.0,55,30.12,10.0,NW,12.7,-,N/A,,Clear,310,2012-12-19 16:53:00
10:53 AM,24.1,7.0,48,30.10,10.0,NNW,13.8,-,N/A,,Clear,330,2012-12-19 17:53:00
11:53 AM,25.0,6.1,45,30.10,10.0,NW,11.5,-,N/A,,Clear,310,2012-12-19 18:53:00
12:53 PM,26.1,5.0,41,30.09,10.0,NW,17.3,24.2,N/A,,Clear,320,2012-12-19 19:53:00
1:53 PM,27.0,3.0,36,30.09,10.0,NW,16.1,-,N/A,,Clear,320,2012-12-19 20:53:00
2:53 PM,26.1,3.0,37,30.12,10.0,NW,18.4,-,N/A,,Clear,310,2012-12-19 21:53:00
3:53 PM,24.1,3.0,40,30.14,10.0,NW,13.8,-,N/A,,Clear,310,2012-12-19 22:53:00
4:53 PM,14.0,1.0,56,30.20,10.0,West,8.1,-,N/A,,Clear,270,2012-12-19 23:53:00
5:53 PM,10.0,1.0,67,30.22,10.0,WSW,4.6,-,N/A,,Clear,250,2012-12-20 00:53:00
6:53 PM,9.0,1.0,70,30.23,10.0,WSW,5.8,-,N/A,,Clear,240,2012-12-20 01:53:00
7:53 PM,9.0,1.0,70,30.24,10.0,WSW,4.6,-,N/A,,Clear,240,2012-12-20 02:53:00
8:53 PM,8.1,-0.0,70,30.23,10.0,South,6.9,-,N/A,,Clear,190,2012-12-20 03:53:00
9:53 PM,10.0,1.0,67,30.21,10.0,South,6.9,-,N/A,,Clear,180,2012-12-20 04:53:00
10:53 PM,10.9,-0.0,61,30.19,10.0,SSE,6.9,-,N/A,,Clear,160,2012-12-20 05:53:00
11:53 PM,10.9,-0.9,59,30.20,10.0,Variable,4.6,-,N/A,,Clear,0,2012-12-20 06:53:00